Time,TemperatureF,DewpointF,PressureIn,WindDirection,WindDirectionDegrees,WindSpeedMPH,WindSpeedGustMPH,Humidity,HourlyPrecipIn,Conditions,Clouds,dailyrainin,SoftwareType,DateUTC
2013-01-29 00:01:00,39.0,39.0,30.18,SSW,212,0.0,1.0,99,0.01,,,0.50,,2013-01-29 08:01:00,
2013-01-29 00:11:00,39.0,39.0,30.18,SSW,212,0.0,1.0,99,0.01,,,0.50,,2013-01-29 08:11:00,
2013-01-29 00:21:00,39.0,39.0,30.17,SW,214,0.0,0.0,99,0.01,,,0.50,,2013-01-29 08:21:00,
2013-01-29 00:31:00,39.0,39.0,30.19,SW,231,0.0,0.0,99,0.02,,,0.51,,2013-01-29 08:31:00,
2013-01-29 00:41:00,39.0,39.0,30.19,SW,231,0.0,0.0,99,0.02,,,0.51,,2013-01-29 08:41:00,
2013-01-29 00:51:00,39.0,39.0,30.19,SW,236,0.0,0.0,99,0.03,,,0.52,,2013-01-29 08:51:00,
2013-01-29 01:01:00,39.0,39.0,30.18,SW,224,0.0,0.0,99,0.02,,,0.52,,2013-01-29 09:01:00,
2013-01-29 01:11:00,39.0,39.0,30.18,SW,224,0.0,0.0,99,0.02,,,0.52,,2013-01-29 09:11:00,
2013-01-29 01:21:00,39.0,39.0,30.19,SW,228,0.0,0.0,99,0.03,,,0.52,,2013-01-29 09:21:00,
2013-01-29 01:31:00,39.0,39.0,30.19,SW,228,0.0,0.0,99,0.03,,,0.52,,2013-01-29 09:31:00,
2013-01-29 01:42:00,39.0,39.0,30.19,SW,228,0.0,0.0,99,0.03,,,0.52,,2013-01-29 09:42:00,
2013-01-29 01:51:00,39.0,39.0,30.19,SW,221,0.0,0.0,99,0.02,,,0.52,,2013-01-29 09:51:00,
2013-01-29 02:01:00,39.0,39.0,30.19,SW,221,0.0,0.0,99,0.01,,,0.52,,2013-01-29 10:01:00,
2013-01-29 02:11:00,39.0,39.0,30.19,SW,221,0.0,0.0,99,0.01,,,0.52,,2013-01-29 10:11:00,
2013-01-29 02:21:00,39.0,39.0,30.20,SW,223,0.0,0.0,99,0.01,,,0.52,,2013-01-29 10:21:00,
2013-01-29 02:32:00,40.0,40.0,30.20,SW,223,0.0,0.0,99,0.01,,,0.53,,2013-01-29 10:32:00,
2013-01-29 02:41:00,40.0,40.0,30.20,SW,223,0.0,0.0,99,0.01,,,0.53,,2013-01-29 10:41:00,
2013-01-29 02:51:00,40.0,40.0,30.20,SW,223,0.0,0.0,99,0.01,,,0.53,,2013-01-29 10:51:00,
2013-01-29 03:01:00,40.0,40.0,30.21,SW,223,0.0,0.0,99,0.02,,,0.54,,2013-01-29 11:01:00,
2013-01-29 03:11:00,40.0,40.0,30.21,SW,223,0.0,0.0,99,0.02,,,0.54,,2013-01-29 11:11:00,
2013-01-29 03:21:00,40.0,40.0,30.21,SW,223,0.0,0.0,99,0.03,,,0.55,,2013-01-29 11:21:00,
2013-01-29 03:31:00,40.0,40.0,30.21,SW,223,0.0,0.0,99,0.03,,,0.55,,2013-01-29 11:31:00,
2013-01-29 03:42:00,40.0,40.0,30.21,SW,223,0.0,0.0,99,0.03,,,0.55,,2013-01-29 11:42:00,
2013-01-29 03:52:00,40.0,40.0,30.22,West,264,0.0,1.0,99,0.03,,,0.56,,2013-01-29 11:52:00,
2013-01-29 04:02:00,40.0,40.0,30.22,East,97,0.0,0.0,100,0.02,,,0.56,,2013-01-29 12:02:00,
2013-01-29 04:12:00,40.0,40.0,30.22,East,97,0.0,0.0,100,0.02,,,0.56,,2013-01-29 12:12:00,
2013-01-29 04:22:00,42.0,42.0,30.22,WSW,252,0.0,5.0,100,0.02,,,0.56,,2013-01-29 12:22:00,
2013-01-29 04:32:00,42.0,42.0,30.22,WNW,295,0.0,3.0,99,0.03,,,0.59,,2013-01-29 12:32:00,
2013-01-29 04:42:00,42.0,42.0,30.22,WNW,295,0.0,3.0,99,0.03,,,0.59,,2013-01-29 12:42:00,
2013-01-29 04:52:00,42.0,42.0,30.22,SW,229,0.0,2.0,99,0.04,,,0.60,,2013-01-29 12:52:00,
2013-01-29 05:01:00,42.0,41.0,30.22,West,280,0.0,2.0,98,0.04,,,0.60,,2013-01-29 13:01:00,
2013-01-29 05:11:00,42.0,41.0,30.22,West,280,0.0,2.0,98,0.04,,,0.60,,2013-01-29 13:11:00,
2013-01-29 05:22:00,42.0,41.0,30.23,WNW,282,0.0,5.0,98,0.04,,,0.61,,2013-01-29 13:22:00,
2013-01-29 05:31:00,42.0,41.0,30.24,WNW,300,1.0,4.0,98,0.02,,,0.60,,2013-01-29 13:31:00,
2013-01-29 05:42:00,42.0,41.0,30.24,WNW,300,1.0,4.0,98,0.02,,,0.60,,2013-01-29 13:42:00,
2013-01-29 05:52:00,42.0,41.0,30.24,SW,218,0.0,3.0,98,0.01,,,0.60,,2013-01-29 13:52:00,
2013-01-29 06:01:00,42.0,41.0,30.24,SW,214,0.0,5.0,98,0.01,,,0.60,,2013-01-29 14:01:00,
2013-01-29 06:12:00,42.0,41.0,30.24,West,267,0.0,2.0,98,0.00,,,0.60,,2013-01-29 14:12:00,
2013-01-29 06:21:00,42.0,41.0,30.24,West,267,0.0,2.0,98,0.00,,,0.60,,2013-01-29 14:21:00,
2013-01-29 06:32:00,43.0,42.0,30.25,West,279,1.0,8.0,97,0.00,,,0.60,,2013-01-29 14:32:00,
2013-01-29 06:43:00,43.0,42.0,30.25,West,279,1.0,8.0,97,0.00,,,0.60,,2013-01-29 14:43:00,
2013-01-29 06:52:00,43.0,42.0,30.25,WNW,285,3.0,9.0,97,0.00,,,0.60,,2013-01-29 14:52:00,
2013-01-29 07:02:00,43.0,42.0,30.26,WSW,251,0.0,5.0,98,0.00,,,0.60,,2013-01-29 15:02:00,
2013-01-29 07:11:00,43.0,42.0,30.26,WSW,251,0.0,5.0,98,0.00,,,0.60,,2013-01-29 15:11:00,
2013-01-29 07:21:00,43.0,42.0,30.26,SW,218,0.0,1.0,98,0.00,,,0.60,,2013-01-29 15:21:00,
2013-01-29 07:32:00,43.0,42.0,30.27,WSW,251,0.0,2.0,98,0.01,,,0.61,,2013-01-29 15:32:00,
2013-01-29 07:42:00,43.0,42.0,30.27,WSW,251,0.0,2.0,98,0.01,,,0.61,,2013-01-29 15:42:00,
2013-01-29 07:52:00,43.0,42.0,30.27,SW,230,0.0,3.0,98,0.02,,,0.62,,2013-01-29 15:52:00,
2013-01-29 08:02:00,43.0,42.0,30.28,West,278,0.0,7.0,98,0.02,,,0.62,,2013-01-29 16:02:00,
2013-01-29 08:12:00,43.0,42.0,30.28,West,278,0.0,7.0,98,0.02,,,0.62,,2013-01-29 16:12:00,
2013-01-29 08:22:00,42.0,41.0,30.28,SW,216,0.0,5.0,98,0.02,,,0.62,,2013-01-29 16:22:00,
2013-01-29 08:32:00,43.0,42.0,30.29,NW,309,0.0,6.0,98,0.01,,,0.62,,2013-01-29 16:32:00,
2013-01-29 08:42:00,43.0,42.0,30.29,NW,309,0.0,6.0,98,0.01,,,0.62,,2013-01-29 16:42:00,
2013-01-29 08:52:00,43.0,42.0,30.29,WSW,247,0.0,4.0,98,0.01,,,0.63,,2013-01-29 16:52:00,
2013-01-29 09:02:00,43.0,42.0,30.30,SW,229,0.0,6.0,97,0.01,,,0.63,,2013-01-29 17:02:00,
2013-01-29 09:12:00,43.0,42.0,30.30,SW,229,0.0,6.0,97,0.01,,,0.63,,2013-01-29 17:12:00,
2013-01-29 09:21:00,43.0,42.0,30.31,SSW,205,0.0,3.0,97,0.01,,,0.63,,2013-01-29 17:21:00,
2013-01-29 09:32:00,43.0,42.0,30.32,SW,218,0.0,2.0,98,0.01,,,0.62,,2013-01-29 17:32:00,
2013-01-29 09:42:00,43.0,42.0,30.32,SW,218,0.0,2.0,98,0.01,,,0.62,,2013-01-29 17:42:00,
2013-01-29 09:52:00,43.0,42.0,30.32,SSE,152,0.0,0.0,98,0.00,,,0.62,,2013-01-29 17:52:00,
2013-01-29 10:03:00,43.0,43.0,30.32,WSW,253,0.0,0.0,99,0.00,,,0.62,,2013-01-29 18:03:00,
2013-01-29 10:12:00,43.0,43.0,30.32,WSW,253,0.0,0.0,99,0.00,,,0.62,,2013-01-29 18:12:00,
2013-01-29 10:22:00,44.0,43.0,30.33,WSW,258,0.0,1.0,98,0.00,,,0.62,,2013-01-29 18:22:00,
2013-01-29 10:33:00,44.0,43.0,30.33,SSW,213,0.0,2.0,98,0.00,,,0.62,,2013-01-29 18:33:00,
2013-01-29 10:42:00,44.0,43.0,30.33,SSW,213,0.0,2.0,98,0.00,,,0.62,,2013-01-29 18:42:00,
2013-01-29 10:51:00,44.0,43.0,30.35,WNW,286,0.0,3.0,97,0.00,,,0.62,,2013-01-29 18:51:00,
2013-01-29 11:02:00,45.0,44.0,30.35,WSW,252,1.0,5.0,96,0.00,,,0.62,,2013-01-29 19:02:00,
2013-01-29 11:11:00,45.0,44.0,30.35,WSW,252,1.0,5.0,96,0.00,,,0.62,,2013-01-29 19:11:00,
2013-01-29 11:22:00,45.0,43.0,30.36,West,263,2.0,9.0,94,0.00,,,0.62,,2013-01-29 19:22:00,
2013-01-29 11:32:00,46.0,44.0,30.36,WNW,291,0.0,9.0,94,0.00,,,0.61,,2013-01-29 19:32:00,
2013-01-29 11:42:00,46.0,44.0,30.36,WNW,291,0.0,9.0,94,0.00,,,0.61,,2013-01-29 19:42:00,
2013-01-29 11:52:00,46.0,44.0,30.37,WNW,299,1.0,4.0,92,0.00,,,0.61,,2013-01-29 19:52:00,
2013-01-29 12:02:00,46.0,44.0,30.37,NW,307,0.0,6.0,93,0.00,,,0.61,,2013-01-29 20:02:00,
2013-01-29 12:12:00,46.0,44.0,30.37,NW,307,0.0,6.0,93,0.00,,,0.61,,2013-01-29 20:12:00,
2013-01-29 12:22:00,46.0,44.0,30.37,WSW,248,1.0,4.0,92,0.00,,,0.61,,2013-01-29 20:22:00,
2013-01-29 12:32:00,47.0,44.0,30.37,WNW,300,3.0,8.0,89,0.00,,,0.60,,2013-01-29 20:32:00,
2013-01-29 12:42:00,47.0,44.0,30.37,WNW,300,3.0,8.0,89,0.00,,,0.60,,2013-01-29 20:42:00,
2013-01-29 12:53:00,47.0,44.0,30.38,NW,315,2.0,7.0,89,0.00,,,0.60,,2013-01-29 20:53:00,
2013-01-29 13:02:00,47.0,45.0,30.38,West,278,0.0,4.0,94,0.00,,,0.60,,2013-01-29 21:02:00,
2013-01-29 13:12:00,47.0,45.0,30.38,West,278,0.0,4.0,94,0.00,,,0.60,,2013-01-29 21:12:00,
2013-01-29 13:21:00,47.0,44.0,30.37,WNW,290,1.0,5.0,88,0.00,,,0.60,,2013-01-29 21:21:00,
2013-01-29 13:33:00,47.0,45.0,30.37,SW,228,0.0,4.0,91,0.00,,,0.56,,2013-01-29 21:33:00,
2013-01-29 13:42:00,47.0,45.0,30.37,SW,228,0.0,4.0,91,0.00,,,0.56,,2013-01-29 21:42:00,
2013-01-29 13:52:00,47.0,45.0,30.37,WSW,257,0.0,1.0,94,0.00,,,0.56,,2013-01-29 21:52:00,
2013-01-29 14:02:00,46.0,45.0,30.37,NE,39,0.0,1.0,95,0.00,,,0.56,,2013-01-29 22:02:00,
2013-01-29 14:12:00,46.0,45.0,30.37,NE,39,0.0,1.0,95,0.00,,,0.56,,2013-01-29 22:12:00,
2013-01-29 14:21:00,46.0,45.0,30.38,SW,233,0.0,3.0,95,0.00,,,0.56,,2013-01-29 22:21:00,
2013-01-29 14:32:00,46.0,45.0,30.38,WSW,241,0.0,0.0,97,0.00,,,0.51,,2013-01-29 22:32:00,
2013-01-29 14:42:00,46.0,45.0,30.38,WSW,241,0.0,0.0,97,0.00,,,0.51,,2013-01-29 22:42:00,
2013-01-29 14:52:00,46.0,45.0,30.38,SW,217,0.0,0.0,96,0.00,,,0.51,,2013-01-29 22:52:00,
2013-01-29 15:02:00,46.0,45.0,30.38,SW,217,0.0,0.0,97,0.00,,,0.51,,2013-01-29 23:02:00,
2013-01-29 15:11:00,46.0,45.0,30.38,SW,217,0.0,0.0,97,0.00,,,0.51,,2013-01-29 23:11:00,
2013-01-29 15:22:00,46.0,45.0,30.39,SW,233,0.0,2.0,97,0.00,,,0.51,,2013-01-29 23:22:00,
2013-01-29 15:32:00,46.0,45.0,30.39,SW,224,0.0,1.0,97,0.00,,,0.47,,2013-01-29 23:32:00,
2013-01-29 15:42:00,46.0,45.0,30.39,SW,224,0.0,1.0,97,0.00,,,0.47,,2013-01-29 23:42:00,
2013-01-29 15:52:00,46.0,45.0,30.39,SW,224,0.0,1.0,97,0.00,,,0.47,,2013-01-29 23:52:00,
2013-01-29 16:02:00,45.0,44.0,30.40,WSW,243,0.0,0.0,97,0.01,,,0.48,,2013-01-30 00:02:00,
2013-01-29 16:11:00,45.0,44.0,30.40,WSW,243,0.0,0.0,97,0.01,,,0.48,,2013-01-30 00:11:00,
2013-01-29 16:22:00,45.0,44.0,30.40,West,270,0.0,0.0,97,0.01,,,0.48,,2013-01-30 00:22:00,
2013-01-29 16:32:00,45.0,44.0,30.40,WSW,255,0.0,0.0,98,0.01,,,0.46,,2013-01-30 00:32:00,
2013-01-29 16:42:00,45.0,44.0,30.40,WSW,255,0.0,0.0,98,0.01,,,0.46,,2013-01-30 00:42:00,
2013-01-29 16:52:00,45.0,44.0,30.41,WSW,256,0.0,0.0,98,0.01,,,0.46,,2013-01-30 00:52:00,
2013-01-29 17:01:00,44.0,43.0,30.41,WSW,255,0.0,0.0,98,0.00,,,0.46,,2013-01-30 01:01:00,
2013-01-29 17:11:00,44.0,43.0,30.41,WSW,255,0.0,0.0,98,0.00,,,0.46,,2013-01-30 01:11:00,
2013-01-29 17:22:00,44.0,43.0,30.41,WSW,255,0.0,0.0,98,0.00,,,0.46,,2013-01-30 01:22:00,
2013-01-29 17:32:00,44.0,43.0,30.41,WSW,255,0.0,0.0,98,0.00,,,0.46,,2013-01-30 01:32:00,
2013-01-29 17:52:00,44.0,43.0,30.42,NE,46,0.0,0.0,98,0.00,,,0.43,,2013-01-30 01:52:00,
2013-01-29 18:02:00,44.0,43.0,30.42,NE,46,0.0,0.0,98,0.00,,,0.43,,2013-01-30 02:02:00,
2013-01-29 18:12:00,44.0,43.0,30.42,NE,46,0.0,0.0,98,0.00,,,0.43,,2013-01-30 02:12:00,
2013-01-29 18:21:00,43.0,43.0,30.42,NNW,342,0.0,0.0,99,0.00,,,0.43,,2013-01-30 02:21:00,
2013-01-29 18:33:00,43.0,43.0,30.42,NNW,342,0.0,0.0,99,0.00,,,0.36,,2013-01-30 02:33:00,
2013-01-29 18:42:00,43.0,43.0,30.42,NNW,342,0.0,0.0,99,0.00,,,0.36,,2013-01-30 02:42:00,
2013-01-29 18:52:00,43.0,43.0,30.42,NNW,342,0.0,0.0,99,0.00,,,0.36,,2013-01-30 02:52:00,
2013-01-29 19:02:00,43.0,43.0,30.42,NNW,342,0.0,0.0,99,0.00,,,0.36,,2013-01-30 03:02:00,
2013-01-29 19:11:00,43.0,43.0,30.42,NNW,342,0.0,0.0,99,0.00,,,0.36,,2013-01-30 03:11:00,
2013-01-29 19:22:00,43.0,43.0,30.42,NNW,342,0.0,0.0,99,0.00,,,0.36,,2013-01-30 03:22:00,
2013-01-29 19:31:00,43.0,43.0,30.43,NNW,342,0.0,0.0,99,0.00,,,0.31,,2013-01-30 03:31:00,
2013-01-29 19:42:00,43.0,43.0,30.43,NNW,342,0.0,0.0,99,0.00,,,0.31,,2013-01-30 03:42:00,
2013-01-29 19:51:00,43.0,43.0,30.42,NNW,342,0.0,0.0,99,0.00,,,0.31,,2013-01-30 03:51:00,
2013-01-29 19:52:00,42.0,42.0,30.42,NE,51,0.0,0.0,99,0.00,,,0.31,,2013-01-30 03:52:00,
2013-01-29 20:01:00,43.0,43.0,30.42,NNW,342,0.0,0.0,99,0.00,,,0.31,,2013-01-30 04:01:00,
2013-01-29 20:11:00,43.0,43.0,30.42,NNW,342,0.0,0.0,99,0.00,,,0.31,,2013-01-30 04:11:00,
2013-01-29 20:21:00,42.0,42.0,30.42,NE,51,0.0,0.0,99,0.00,,,0.31,,2013-01-30 04:21:00,
2013-01-29 20:32:00,42.0,42.0,30.42,NE,51,0.0,0.0,99,0.00,,,0.31,,2013-01-30 04:32:00,
2013-01-29 20:41:00,42.0,42.0,30.42,NE,51,0.0,0.0,99,0.00,,,0.31,,2013-01-30 04:41:00,
2013-01-29 21:03:00,42.0,42.0,30.42,West,276,0.0,0.0,99,0.00,,,0.26,,2013-01-30 05:03:00,
2013-01-29 21:12:00,42.0,42.0,30.42,West,276,0.0,0.0,99,0.00,,,0.26,,2013-01-30 05:12:00,
2013-01-29 21:22:00,42.0,42.0,30.42,West,276,0.0,0.0,99,0.00,,,0.26,,2013-01-30 05:22:00,
2013-01-29 21:32:00,42.0,42.0,30.42,WSW,255,0.0,0.0,99,0.00,,,0.22,,2013-01-30 05:32:00,
2013-01-29 21:43:00,42.0,42.0,30.42,WSW,255,0.0,0.0,99,0.00,,,0.22,,2013-01-30 05:43:00,
2013-01-29 21:52:00,42.0,42.0,30.42,WSW,255,0.0,0.0,99,0.00,,,0.22,,2013-01-30 05:52:00,
2013-01-29 22:02:00,42.0,41.0,30.41,SW,221,0.0,0.0,98,0.00,,,0.22,,2013-01-30 06:02:00,
2013-01-29 22:11:00,42.0,41.0,30.41,SW,221,0.0,0.0,98,0.00,,,0.22,,2013-01-30 06:11:00,
2013-01-29 22:21:00,42.0,41.0,30.40,NNE,19,0.0,4.0,98,0.00,,,0.22,,2013-01-30 06:21:00,
2013-01-29 22:31:00,42.0,41.0,30.40,East,79,0.0,2.0,98,0.00,,,0.18,,2013-01-30 06:31:00,
2013-01-29 22:41:00,42.0,41.0,30.40,East,79,0.0,2.0,98,0.00,,,0.18,,2013-01-30 06:41:00,
2013-01-29 22:51:00,42.0,41.0,30.40,ENE,63,0.0,0.0,98,0.01,,,0.19,,2013-01-30 06:51:00,
2013-01-29 23:01:00,42.0,41.0,30.40,ESE,105,0.0,3.0,98,0.01,,,0.19,,2013-01-30 07:01:00,
2013-01-29 23:11:00,42.0,41.0,30.40,ESE,105,0.0,3.0,98,0.01,,,0.19,,2013-01-30 07:11:00,
2013-01-29 23:21:00,42.0,42.0,30.40,West,276,0.0,0.0,99,0.01,,,0.19,,2013-01-30 07:21:00,
2013-01-29 23:31:00,42.0,42.0,30.40,SSW,206,0.0,1.0,99,0.01,,,0.19,,2013-01-30 07:31:00,
2013-01-29 23:41:00,42.0,42.0,30.40,SSW,206,0.0,1.0,99,0.01,,,0.19,,2013-01-30 07:41:00,
2013-01-29 23:52:00,42.0,42.0,30.40,East,94,0.0,1.0,99,0.01,,,0.19,,2013-01-30 07:52:00,